A-11 Canister half - Orbit

View from above orbital plane
View from above orbital plane
View from above satellite
View from above satellite

Ground track
Ground track

The orbit data is extracted from the following two-line orbital elements,

1 00053U 60009E   13144.50033508 -.00000085  00000-0  00000+0 0  3672
2 00053 047.2761 297.4334 0097410 016.0918 030.8342 12.17113576354214
Epoch (UTC): 24 May 2013 12:00:28
Eccentricity: 0.0097410
inclination: 47.2761°
perigee height: 1527 km
apogee height: 1683 km
right ascension of ascending node: 297.4334°
argument of perigee: 16.0918°
revolutions per day: 12.17113576
mean anomaly at epoch: 30.8342°
orbit number at epoch: 35421

The dashed part of the orbit path shows where the satellite is in the earth's shadow,  

Developed and maintained by Chris Peat, Heavens-Above GmbH. Please read the updated FAQ before sending e-mail. Imprint. DLR